Weather Roundup
Issued by NWS

Home | Current Version | Previous Version | Graphics & Text | Print | Product List | Glossary Off
Versions: 1 2 3 4 5 6 7 8 9 10 11 12 13 14 15 16 17 18 19 20 21 22 23 24 25 26 27 28 29 30 31 32 33 34 35 36 37 38 39 40 41 42 43 44 45 46 47 48 49 50

063
NZUS93 KARX 242159
HRRWXR

CURRENT HOURLY OBSERVATIONS ACROSS
MUCH OF THE UPPER MISSISSIPPI VALLEY
NATIONAL WEATHER SERVICE LA CROSSE WI
500 PM CDT FRI MAR 24 2017


...SOUTHEAST MINNESOTA...


CITY           SKY/WX    TMP DP  RH WIND       PRES   REMARKS
ROCHESTER      CLOUDY    39  38  96 N14       30.03R WCI  31
ROCHESTER/MAYO CLOUDY    40  39  99 NE12G17   30.04R WCI  32
WINONA         CLOUDY    41  37  87 N3        30.06R
AUSTIN         CLOUDY    39  37  93 NE13G18   30.00F WCI  32
ALBERT LEA     CLOUDY    39  39 100 N16       30.02R FOG     WCI  30
DODGE CENTER   CLOUDY    37  37 100 N14       30.03R FOG     WCI  29
PRESTON        CLOUDY    39  37  92 N15       30.01R WCI  30
OWATONNA       CLOUDY    43  36  75 N16       30.04R
FARIBAULT      CLOUDY    45  39  81 N16G24    30.04F
$$

...ELSEWHERE IN MINNESOTA...


CITY           SKY/WX    TMP DP  RH WIND       PRES   REMARKS
MINNEAPOLIS    CLOUDY    44  35  70 N14       30.08R
INTNL FALLS    CLOUDY    38  24  57 NE5       30.18R WCI  34
DULUTH         CLOUDY    37  33  85 SE5       30.13R WCI  33
RED WING       CLOUDY    45  36  70 NE7       30.05F
REDWOOD FALLS  CLOUDY    41  35  79 N12G21    30.09F
MANKATO        CLOUDY    44  38  79 N17       30.06R
WORTHINGTON    CLOUDY    40  38  93 N20G25    30.05R FOG     WCI  30
FAIRMONT       CLOUDY    42  38  85 N13       30.06R
$$

...SOUTHWEST WISCONSIN...


CITY           SKY/WX    TMP DP  RH WIND       PRES   REMARKS
LA CROSSE      CLOUDY    43  39  86 N9G17     30.03S FOG
PRAIRIE DU CHI CLOUDY    47  40  75 N5        29.97R
BOSCOBEL       CLOUDY    49  41  74 VRB7      29.98R
LONE ROCK      CLOUDY    46  39  76 N13G20    29.99R HAZE
PLATTEVILLE    CLOUDY    56  51  81 N6        29.95R
FORT MC COY    CLOUDY    40  38  95 NE10      30.03F WCI  33
CAMP DOUGLAS   LGT RAIN  39  37  93 NE7       30.02F WCI  34
MAUSTON-NEW LI RAIN      40  38  95 N7        30.02S WCI  35
VIROQUA        CLOUDY    40  40  97 NE15      29.98S WCI  32
WIS DELLS      CLOUDY    40  38  92 NE14      30.00R FOG     WCI  33
$$

...ELSEWHERE IN WISCONSIN...


CITY           SKY/WX    TMP DP  RH WIND       PRES   REMARKS
MILWAUKEE      CLOUDY    40  35  83 N16G28    30.00R HAZE    WCI  31
MADISON        CLOUDY    44  39  82 N14       29.99R
GREEN BAY      LGT RAIN  37  37 100 NE13      30.08R FOG     WCI  29
EAU CLAIRE     NOT AVBL
BLACK RVR FLS  DRIZZLE   41  41 100 NE6       30.04R
MEDFORD        CLOUDY    37  35  92 N12       30.06R WCI  29
WAUSAU         CLOUDY    38  36  92 N5        30.05R WCI  34
WIS RAPIDS     LGT RAIN  38  38 100 E9        30.07R WCI  31
MARSHFIELD     LGT RAIN  38  37  97 NE9       30.05R WCI  31
RICE LAKE      CLOUDY    40  36  84 CALM      30.11R
$$

...NORTHEAST IOWA...


CITY           SKY/WX    TMP DP  RH WIND       PRES   REMARKS
WATERLOO       CLOUDY    45  41  86 N8        29.97R FOG
DUBUQUE        CLOUDY    54  51  90 CALM      29.94S FOG
DECORAH        MIX PCPN  43  39  87 N9        29.98R
MASON CITY     CLOUDY    42  38  85 N17       30.01R
CHARLES CITY   CLOUDY    43  43 100 N17G23    29.99R
OELWEIN        CLOUDY    45  45 100 NE10G16   29.97R
$$

...ELSEWHERE IN IOWA...


CITY           SKY/WX    TMP DP  RH WIND       PRES   REMARKS
DES MOINES     CLOUDY    50  46  86 N10       29.94S FOG
IOWA CITY      RAIN      56  53  90 CALM      29.96F FOG
FORT DODGE     CLOUDY    43  37  81 N13G21    30.00R
MARSHALLTOWN   CLOUDY    47  45  93 NE16      29.95R FOG
CEDAR RAPIDS   LGT RAIN  53  53 100 SE3       29.94R FOG
$$

...NORTHERN ILLINOIS...


CITY           SKY/WX    TMP DP  RH WIND       PRES   REMARKS
CHICAGO-OHARE  CLOUDY    78  42  27 W10       29.89R
CHICAGO-MIDWAY CLOUDY    78  49  35 SW17G26   29.90R
MOLINE         CLOUDY    70  44  39 W17       29.92R
ROCKFORD       CLOUDY    74  45  35 SW7       29.92R
PEORIA         MOSUNNY   74  45  35 W6        29.92R
$$

NOTE: "FAIR" INDICATES FEW OR NO CLOUDS BELOW 12,000 FEET WITH NO
SIGNIFICANT WEATHER AND/OR OBSTRUCTIONS TO VISIBILITY. WIND
SPEEDS ARE IN MILES-PER-HOUR.




USA.gov is the U.S. government's official web portal to all federal, state and local government web resources and services.